This is the latest recevied weather packets stored in our database for station/object VR2R-13. If no packets are shown the sender has not sent any weather packets the latest 1 day(s).
| Time | Temp. | Humidity | Pressure | Rain* | Wind** | Luminosity | Snow |
|---|---|---|---|---|---|---|---|
| 1777987663 | 16.11° C | 97% | 914.5 hPa | 0 mm | 3.13 m/s, 48° | - | - |
| 1777987424 | 16.11° C | 97% | 914.4 hPa | 0 mm | 3.58 m/s, 68° | - | - |
| 1777987363 | 16.11° C | 97% | 914.5 hPa | 0 mm | 3.58 m/s, 53° | - | - |
| 1777987064 | 16.11° C | 97% | 914.3 hPa | 0 mm | 0 m/s | - | - |
| 1777986704 | 16.11° C | 97% | 914.4 hPa | 0 mm | 3.13 m/s, 54° | - | - |
| 1777986344 | 16.11° C | 97% | 914.3 hPa | 0 mm | 2.24 m/s, 47° | - | - |
| 1777986162 | 16.11° C | 97% | 914.4 hPa | 0 mm | 1.79 m/s, 48° | - | - |
| 1777985984 | 16.11° C | 97% | 914.4 hPa | 0 mm | 2.24 m/s, 43° | - | - |
| 1777985862 | 16.11° C | 97% | 914.4 hPa | 0 mm | 0.45 m/s, 28° | - | - |
| 1777985626 | 16.11° C | 98% | 914.4 hPa | 0 mm | 0 m/s | - | - |
| 1777985562 | 16.11° C | 97% | 914.4 hPa | 0 mm | 0 m/s | - | - |
| 1777985264 | 16.11° C | 98% | 914.4 hPa | 0 mm | 0 m/s | - | - |
| 1777984904 | 16.11° C | 97% | 914.3 hPa | 0 mm | 1.79 m/s, 18° | - | - |
| 1777984662 | 16.11° C | 97% | 914.2 hPa | 0 mm | 2.24 m/s, 35° | - | - |
| 1777984543 | 16.11° C | 97% | 914.2 hPa | 0 mm | 0 m/s | - | - |
| 1777984362 | 16.11° C | 97% | 914.2 hPa | 0 mm | 2.24 m/s, 43° | - | - |
| 1777984183 | 16.11° C | 97% | 914.2 hPa | 0 mm | 1.34 m/s, 41° | - | - |
| 1777984063 | 16.11° C | 97% | 914.1 hPa | 0 mm | 2.24 m/s, 46° | - | - |
| 1777983823 | 16.11° C | 97% | 914.1 hPa | 0 mm | 2.24 m/s, 55° | - | - |
| 1777983762 | 16.11° C | 97% | 914.1 hPa | 0 mm | 2.24 m/s, 40° | - | - |
| 1777983464 | 16.11° C | 97% | 914.1 hPa | 0 mm | 0.89 m/s, 51° | - | - |
| 1777983462 | 16.11° C | 97% | 914.1 hPa | 0 mm | 0.89 m/s, 53° | - | - |
| 1777983162 | 16.11° C | 97% | 914.1 hPa | 0 mm | 2.24 m/s, 43° | - | - |
| 1777983103 | 16.11° C | 97% | 914 hPa | 0 mm | 2.24 m/s, 34° | - | - |
| 1777982862 | 16.11° C | 97% | 914.1 hPa | 0 mm | 2.24 m/s, 61° | - | - |
* Rain latest hour (hover to see other rain measurements)
** Current wind speed in m/s (hover to see current wind gust speed)